Concordia, KS

10:46 PM CDT on October 20, 2019 (GMT -0500)
Blosser Municipal

Weather History for KCNK - August, 2019

Change the Weather History Date:

Wednesday, August 21, 2019

  Actual Average Record
Temperature  
Mean Temperature 76 °F 77 °F  
Max Temperature 81 °F 88 °F 104 °F (2001)
Min Temperature 70 °F 65 °F 51 °F (2004)
Degree Days  
Heating Degree Days 0 0  
Month to date heating degree days 0 0  
Since 1 June heating degree days 0 13  
Since 1 July heating degree days 0 0  
Cooling Degree Days 11 12  
Month to date cooling degree days 289 272  
Year to date cooling degree days 1194 1062  
Since 1 June cooling degree days 1094 973  
Growing Degree Days 26 (Base 50)    
Moisture  
Dew Point 70 °F    
Average Humidity 83    
Maximum Humidity 97    
Minimum Humidity 69    
Precipitation  
Precipitation 0.40 in 0.09 in 1.44 in (1984)
Month to date precipitation 5.07 2.19  
Year to date precipitation 27.30 20.15  
Snow  
Snow 0.00 in 0.00 in 0.00 in ()
Month to date snowfall 0.0 0.0  
Year to date snowfall 32.3 13.7  
Since 1 July snowfall 0.0 0.0  
Snow Depth 0.00 in    
Sea Level Pressure  
Sea Level Pressure 30.00 in    
Wind  
Wind Speed 9 mph (ENE)    
Max Wind Speed 21 mph    
Max Gust Speed 33 mph    
Visibility 9 miles    
Events Rain , Thunderstorm    
T = Trace of Precipitation, MM = Missing Value Source: NWS Daily Summary

Daily Weather History Graph

Daily Weather History Graph

Search for Another Location

Airport or City:

Astronomy

Aug. 21, 2019 Rise Set
Actual Time 6:48 AM CDT 8:18 PM CDT
Civil Twilight 6:20 AM CDT 8:46 PM CDT
Nautical Twilight 5:46 AM CDT 9:20 PM CDT
Astronomical Twilight 5:09 AM CDT 9:56 PM CDT
Moon 11:38 PM CDT 12:24 PM CDT
Length of Visible Light 14h 26m
Length of Day
13h 29m
Waning Gibbous, 69% of the Moon is Illuminated
Aug 21
Waning Gibbous
Aug 23
Last Quarter
Aug 30
New
Sep 5
First Quarter
Sep 13
Full

Hourly Weather History & Observations

Time (CDT) Temp. Heat Index Dew Point Humidity Pressure Visibility Wind Dir Wind Speed Gust Speed Precip Events Conditions
12:55 AM 81.0 °F 89.2 °F 79.0 °F 94% 29.90 in 9.0 mi SSE 6.9 mph - N/A   Clear
1:55 AM 80.1 °F 85.4 °F 75.9 °F 87% 29.83 in 10.0 mi South 10.4 mph - N/A   Clear
2:55 AM 77.0 °F - 72.0 °F 84% 29.83 in 10.0 mi Calm Calm - N/A   Clear
3:55 AM 78.1 °F - 75.0 °F 90% 29.93 in 10.0 mi ENE 11.5 mph 21.9 mph N/A Thunderstorm Thunderstorm
4:17 AM 79.0 °F - 75.0 °F 88% 30.01 in 10.0 mi ENE 16.1 mph 24.2 mph N/A Thunderstorm Scattered Clouds
4:41 AM 73.0 °F - 69.1 °F 87% 30.01 in 8.0 mi East 15.0 mph 27.6 mph 0.08 in Rain , Thunderstorm Light Thunderstorms and Rain
4:55 AM 72.0 °F - 68.0 °F 87% 29.96 in 9.0 mi East 12.7 mph 25.3 mph 0.08 in Rain , Thunderstorm Light Rain
5:02 AM 72.0 °F - 68.0 °F 87% 30.01 in 9.0 mi ENE 10.4 mph 20.7 mph 0.01 in Rain Light Rain
5:55 AM 71.1 °F - 68.0 °F 90% 29.96 in 10.0 mi East 10.4 mph - 0.01 in   Partly Cloudy
6:55 AM 71.1 °F - 68.0 °F 90% 29.98 in 10.0 mi ESE 15.0 mph 28.8 mph N/A   Scattered Clouds
7:55 AM 71.1 °F - 66.0 °F 84% 29.98 in 10.0 mi East 6.9 mph - N/A   Partly Cloudy
8:55 AM 72.0 °F - 66.9 °F 84% 30.03 in 10.0 mi SSW 5.8 mph - N/A   Mostly Cloudy
9:22 AM 73.0 °F - 66.9 °F 81% 30.11 in 10.0 mi WSW 10.4 mph 18.4 mph N/A Thunderstorm Overcast
9:38 AM 72.0 °F - 68.0 °F 87% 30.13 in 2.0 mi West 20.7 mph 27.6 mph 0.03 in Rain , Thunderstorm Thunderstorms and Rain
9:40 AM 72.0 °F - 69.1 °F 91% 30.14 in 1.0 mi WSW 17.3 mph 27.6 mph 0.04 in Rain , Thunderstorm Heavy Thunderstorms and Rain
9:51 AM 71.6 °F - 69.8 °F 94% 30.12 in 1.8 mi WNW 8.1 mph 19.6 mph 0.24 in Rain , Thunderstorm Thunderstorms and Rain
9:55 AM 72.0 °F - 69.1 °F 91% 30.06 in 2.5 mi NNW 8.1 mph - 0.25 in Rain , Thunderstorm Thunderstorms and Rain
10:02 AM 72.0 °F - 69.1 °F 91% 30.10 in 4.0 mi NNW 8.1 mph - 0.02 in Rain , Thunderstorm Light Thunderstorms and Rain
10:09 AM 72.0 °F - 69.1 °F 91% 30.10 in 5.0 mi North 3.5 mph - 0.03 in Rain , Thunderstorm Rain
10:26 AM 72.0 °F - 70.0 °F 93% 30.10 in 10.0 mi Calm Calm - 0.05 in Rain Light Rain
10:55 AM 72.0 °F - 70.0 °F 93% 30.03 in 10.0 mi East 6.9 mph - 0.05 in Rain Light Rain
11:55 AM 73.9 °F - 70.0 °F 87% 30.01 in 10.0 mi SE 5.8 mph - 0.01 in   Partly Cloudy
12:55 PM 77.0 °F - 72.0 °F 84% 29.96 in 10.0 mi ESE 6.9 mph - N/A   Clear
1:07 PM 75.0 °F - 72.0 °F 90% 30.01 in 10.0 mi ESE 12.7 mph - N/A   Partly Cloudy
1:55 PM 77.0 °F - 71.1 °F 82% 29.95 in 10.0 mi East 11.5 mph - N/A   Partly Cloudy
2:55 PM 78.1 °F - 70.0 °F 76% 29.96 in 10.0 mi ENE 11.5 mph - N/A   Clear
3:55 PM 81.0 °F 84.4 °F 70.0 °F 69% 29.98 in 10.0 mi East 9.2 mph - N/A   Scattered Clouds
4:55 PM 80.1 °F 82.9 °F 69.1 °F 69% 29.97 in 10.0 mi East 8.1 mph - N/A   Overcast
6:55 PM 79.0 °F - 71.1 °F 77% 29.96 in 10.0 mi East 10.4 mph - N/A   Overcast
7:03 PM 78.1 °F - 71.1 °F 79% 30.00 in 10.0 mi ENE 8.1 mph - N/A   Overcast
7:55 PM 75.9 °F - 71.1 °F 85% 29.95 in 10.0 mi ENE 10.4 mph - N/A   Overcast
8:09 PM 75.9 °F - 71.1 °F 85% 29.99 in 10.0 mi NE 6.9 mph - N/A   Overcast
8:53 PM 73.4 °F - 69.8 °F 88% 29.99 in 10.0 mi ENE 6.9 mph - N/A   Partly Cloudy
8:55 PM 73.9 °F - 70.0 °F 87% 29.96 in 10.0 mi ENE 5.8 mph - N/A   Partly Cloudy
9:55 PM 73.0 °F - 70.0 °F 90% 29.99 in 10.0 mi NE 8.1 mph - N/A   Partly Cloudy
10:47 PM 72.0 °F - 70.0 °F 93% 30.05 in 10.0 mi NE 9.2 mph - N/A   Overcast
10:55 PM 72.0 °F - 70.0 °F 93% 30.01 in 10.0 mi NE 9.2 mph - N/A   Overcast
11:44 PM 71.1 °F - 68.0 °F 90% 30.03 in 9.0 mi ENE 4.6 mph - N/A   Mostly Cloudy
11:55 PM 70.0 °F - 68.0 °F 93% 30.00 in 9.0 mi ENE 4.6 mph - N/A   Mostly Cloudy